Weather History for Natchez, MS

Change the Weather History Date:

Tuesday, February 12, 2013

  Actual Average Record
Temperature  
Mean Temperature 52 °F -  
Max Temperature 57 °F 62 °F 79 °F (1950)
Min Temperature 48 °F 40 °F 17 °F (1981)
Degree Days  
Heating Degree Days 12    
Growing Degree Days 2 (Base 50)    
Moisture  
Dew Point 49 °F    
Average Humidity 91    
Maximum Humidity 100    
Minimum Humidity 82    
Precipitation  
Precipitation 1.49 in - - ()
Sea Level Pressure  
Sea Level Pressure 29.88 in    
Wind  
Wind Speed 8 mph (NE)    
Max Wind Speed 18 mph    
Max Gust Speed 25 mph    
Visibility 8 miles    
Events Thunderstorm    
Averages and records for this station are not official NWS values.
T = Trace of Precipitation, MM = Missing Value Source: NWS Daily Summary

Daily Weather History Graph

Daily Weather History Graph

Search for Another Location

Airport:

Trip Planner

Search our weather history database for the weather conditions in past years. The results will help you decide how hot, cold, wet, or windy it might be!

Date:

Astronomy

Feb. 12, 2013 Rise Set
Actual Time 6:49 AM CST 5:49 PM CST
Civil Twilight 6:24 AM CST 6:14 PM CST
Nautical Twilight 5:55 AM CST 6:43 PM CST
Astronomical Twilight 5:27 AM CST 7:11 PM CST
Moon 8:00 AM CST (2/12) 8:35 PM CST (2/12)
Length of Visible Light 11h 50m
Length of Day
11h 00m
Waxing Crescent, 7% of the Moon is Illuminated
Feb 12
Waxing Crescent
Feb 17
First Quarter
Feb 25
Full
Mar 4
Last Quarter
Mar 11
New

Hourly Weather History & Observations

Time (CST) Temp. Dew Point Humidity Pressure Visibility Wind Dir Wind Speed Gust Speed Precip Events Conditions
12:15 AM 51.8 °F 48.2 °F 88% 30.08 in 10.0 mi East 6.9 mph - N/A   Overcast
12:35 AM 51.8 °F 48.2 °F 88% 30.06 in 10.0 mi NE 8.1 mph - N/A   Overcast
12:55 AM 51.8 °F 48.2 °F 88% 30.08 in 10.0 mi ENE 4.6 mph - 0.01 in   Overcast
1:15 AM 51.8 °F 48.2 °F 88% 30.07 in 10.0 mi NE 5.8 mph - N/A   Overcast
1:35 AM 51.8 °F 48.2 °F 88% 30.07 in 10.0 mi NNE 6.9 mph - N/A   Overcast
1:55 AM 51.8 °F 48.2 °F 88% 30.06 in 10.0 mi NNE 5.8 mph - N/A   Overcast
2:15 AM 51.8 °F 48.2 °F 88% 30.06 in 10.0 mi NE 8.1 mph - N/A   Overcast
2:35 AM 51.8 °F 48.2 °F 88% 30.04 in 10.0 mi NE 5.8 mph - N/A   Overcast
2:55 AM 51.8 °F 48.2 °F 88% 30.02 in 10.0 mi NE 10.4 mph - N/A   Overcast
3:15 AM 51.8 °F 48.2 °F 88% 30.01 in 10.0 mi ENE 8.1 mph - N/A   Overcast
3:35 AM 51.8 °F 48.2 °F 88% 30.01 in 10.0 mi ENE 9.2 mph - N/A   Overcast
3:55 AM 51.8 °F 46.4 °F 82% 29.98 in 10.0 mi ENE 10.4 mph - N/A   Overcast
4:15 AM 51.8 °F 48.2 °F 88% 29.98 in 10.0 mi ENE 10.4 mph - N/A   Overcast
4:35 AM 51.8 °F 48.2 °F 88% 29.96 in 10.0 mi ENE 10.4 mph - N/A   Overcast
4:55 AM 51.8 °F 48.2 °F 88% 29.97 in 10.0 mi East 6.9 mph - N/A   Overcast
5:15 AM 51.8 °F 48.2 °F 88% 29.94 in 10.0 mi East 12.7 mph 20.7 mph N/A   Overcast
5:35 AM 51.8 °F 48.2 °F 88% 29.95 in 10.0 mi East 12.7 mph - N/A   Overcast
5:55 AM 51.8 °F 48.2 °F 88% 29.93 in 10.0 mi ENE 8.1 mph - N/A   Overcast
6:15 AM 51.8 °F 48.2 °F 88% 29.91 in 7.0 mi East 10.4 mph - 0.05 in   Overcast
6:35 AM 51.8 °F 48.2 °F 88% 29.91 in 8.0 mi East 11.5 mph - 0.12 in Thunderstorm Thunderstorm
6:55 AM 51.8 °F 48.2 °F 88% 29.96 in 8.0 mi SSE 4.6 mph - 0.24 in Thunderstorm Thunderstorm
7:15 AM 51.8 °F 48.2 °F 88% 29.93 in 3.0 mi East 10.4 mph - 0.51 in Thunderstorm Thunderstorm
7:35 AM 51.8 °F 50.0 °F 94% 29.95 in 4.0 mi NE 10.4 mph - 0.72 in Thunderstorm Thunderstorm
7:55 AM 51.8 °F 48.2 °F 88% 29.90 in 7.0 mi East 15.0 mph - 0.79 in Thunderstorm Mostly Cloudy
8:15 AM 51.8 °F 50.0 °F 94% 29.95 in 10.0 mi NW 18.4 mph - 0.03 in Thunderstorm Thunderstorm
8:35 AM 53.6 °F 50.0 °F 88% 29.94 in 5.0 mi ENE 9.2 mph - 0.25 in Thunderstorm Overcast
8:55 AM 53.6 °F 50.0 °F 88% 29.94 in 3.0 mi NNE 8.1 mph - 0.29 in   Overcast
9:16 AM 53.6 °F 50.0 °F 88% 29.91 in 7.0 mi East 9.2 mph - 0.03 in   Overcast
9:35 AM 53.6 °F 50.0 °F 88% 29.89 in 7.0 mi ESE 9.2 mph - 0.04 in   Overcast
9:55 AM 53.6 °F 51.8 °F 94% 29.88 in 10.0 mi SE 15.0 mph 20.7 mph 0.04 in   Overcast
10:15 AM 53.6 °F 50.0 °F 88% 29.88 in 10.0 mi SE 18.4 mph 24.2 mph N/A   Overcast
10:35 AM 53.6 °F 50.0 °F 88% 29.87 in 10.0 mi ESE 16.1 mph 20.7 mph N/A   Overcast
10:55 AM 53.6 °F 50.0 °F 88% 29.84 in 10.0 mi ESE 15.0 mph 25.3 mph N/A   Overcast
11:15 AM 53.6 °F 51.8 °F 94% 29.83 in 10.0 mi SE 16.1 mph 23.0 mph N/A   Overcast
11:35 AM 53.6 °F 51.8 °F 94% 29.86 in 10.0 mi SE 5.8 mph 18.4 mph N/A   Overcast
11:55 AM 53.6 °F 51.8 °F 94% 29.86 in 10.0 mi East 4.6 mph - N/A   Overcast
12:15 PM 53.6 °F 51.8 °F 94% 29.86 in 4.0 mi NNW 8.1 mph - N/A   Overcast
12:35 PM 53.6 °F 51.8 °F 94% 29.84 in 2.0 mi NNE 9.2 mph - N/A   Overcast
12:55 PM 53.6 °F 51.8 °F 94% 29.83 in 2.0 mi NE 4.6 mph - N/A   Overcast
1:15 PM 53.6 °F 51.8 °F 94% 29.82 in 2.5 mi ENE 3.5 mph - N/A   Overcast
1:35 PM 55.4 °F 53.6 °F 94% 29.80 in 5.0 mi East 4.6 mph - N/A   Overcast
1:55 PM 55.4 °F 53.6 °F 94% 29.79 in 2.5 mi East 4.6 mph - N/A   Overcast
2:15 PM 55.4 °F 53.6 °F 94% 29.78 in 5.0 mi ESE 4.6 mph - N/A   Overcast
2:35 PM 55.4 °F 53.6 °F 94% 29.77 in 2.0 mi East 3.5 mph - N/A   Overcast
2:55 PM 55.4 °F 53.6 °F 94% 29.77 in 1.8 mi ESE 3.5 mph - N/A   Overcast
3:15 PM 55.4 °F 53.6 °F 94% 29.75 in 2.5 mi East 6.9 mph - N/A   Overcast
3:35 PM 55.4 °F 53.6 °F 94% 29.75 in 2.5 mi SE 4.6 mph - N/A   Overcast
3:55 PM 57.2 °F 55.4 °F 94% 29.74 in 2.5 mi ESE 4.6 mph - N/A   Overcast
4:15 PM 57.2 °F 53.6 °F 88% 29.75 in 1.2 mi NNW 5.8 mph - N/A   Overcast
4:35 PM 55.4 °F 53.6 °F 94% 29.75 in 1.0 mi North 6.9 mph - N/A   Overcast
4:55 PM 55.4 °F 53.6 °F 94% 29.77 in 1.5 mi NW 10.4 mph - 0.03 in   Overcast
5:15 PM 51.8 °F 48.2 °F 88% 29.78 in 9.0 mi North 10.4 mph 18.4 mph 0.09 in   Overcast
5:35 PM 51.8 °F 48.2 °F 88% 29.78 in 10.0 mi North 8.1 mph - 0.09 in   Overcast
5:55 PM 51.8 °F 48.2 °F 88% 29.78 in 10.0 mi North 6.9 mph - 0.09 in   Overcast
6:15 PM 51.8 °F 48.2 °F 88% 29.78 in 10.0 mi ENE 5.8 mph - N/A   Overcast
6:35 PM 51.8 °F 48.2 °F 88% 29.77 in 10.0 mi Calm Calm - N/A   Scattered Clouds
6:55 PM 51.8 °F 48.2 °F 88% 29.78 in 10.0 mi Calm Calm - N/A   Scattered Clouds
7:15 PM 51.8 °F 48.2 °F 88% 29.79 in 10.0 mi NW 5.8 mph - N/A   Mostly Cloudy
7:35 PM 51.8 °F 48.2 °F 88% 29.80 in 10.0 mi WNW 6.9 mph - N/A   Overcast
7:55 PM 51.8 °F 48.2 °F 88% 29.81 in 10.0 mi WNW 6.9 mph - N/A   Overcast
8:15 PM 50.0 °F 48.2 °F 94% 29.82 in 10.0 mi WNW 8.1 mph - N/A   Overcast
8:35 PM 50.0 °F 48.2 °F 94% 29.82 in 8.0 mi Calm Calm - N/A   Overcast
8:55 PM 50.0 °F 48.2 °F 94% 29.83 in 6.0 mi WNW 6.9 mph - N/A   Overcast
9:15 PM 50.0 °F 48.2 °F 94% 29.85 in 0.2 mi West 10.4 mph - N/A   Overcast
9:35 PM 48.2 °F 48.2 °F 100% 29.85 in 2.0 mi WNW 5.8 mph - N/A   Overcast
9:55 PM 48.2 °F 46.4 °F 93% 29.86 in 10.0 mi West 8.1 mph - N/A   Overcast
10:15 PM 48.2 °F 46.4 °F 93% 29.89 in 5.0 mi West 9.2 mph - N/A   Overcast
10:35 PM 48.2 °F 46.4 °F 93% 29.88 in 10.0 mi West 5.8 mph - N/A   Overcast
10:55 PM 48.2 °F 46.4 °F 93% 29.88 in 10.0 mi West 3.5 mph - N/A   Overcast
11:15 PM 48.2 °F 46.4 °F 93% 29.88 in 10.0 mi West 6.9 mph - N/A   Overcast
11:35 PM 48.2 °F 46.4 °F 93% 29.88 in 10.0 mi West 6.9 mph - N/A   Overcast
11:55 PM 48.2 °F 46.4 °F 93% 29.88 in 10.0 mi WNW 6.9 mph - N/A   Mostly Cloudy